THY9PR LTFM-LIRF

Flight info

Callsign THY9PR
Flight time 1h 38m
Altitude 30000
Route BARPE1D/35L BARPE UM603 SUTIS DCT DISOR DCT ENFAR DCT RETRA DCT KATTI/N0486F310 DCT ESODU/N0409F190 Z924 MOPUV
Aircraft B77W/H-SDE1E2E3FGHIJ2J3J4J5M1RWXY/LB1D1

Departure

Time 2026-05-01 12:07
Airport İstanbul Airport (LTFM)

Arrival

Time 2026-05-01 13:46
Airport Rome–Fiumicino Leonardo da Vinci International Airport (LIRF)
Time Latitude Longitude Altitude Speed Heading
2026-05-01 11:37 41.26405 28.73567 318 ft 0 kts 71°
2026-05-01 11:51 41.26405 28.73566 318 ft 0 kts 71°
2026-05-01 11:57 41.26404 28.73563 318 ft 0 kts 71°
2026-05-01 11:59 41.26403 28.73560 318 ft 2 kts 71°
2026-05-01 11:59 41.26398 28.73540 316 ft 2 kts 73°
2026-05-01 11:59 41.26393 28.73519 318 ft 2 kts 73°
2026-05-01 12:00 41.26385 28.73478 316 ft 2 kts 96°
2026-05-01 12:00 41.26390 28.73457 317 ft 2 kts 132°
2026-05-01 12:00 41.26403 28.73444 315 ft 0 kts 160°
2026-05-01 12:02 41.26399 28.73445 315 ft 3 kts 161°
2026-05-01 12:02 41.26342 28.73468 318 ft 15 kts 163°
2026-05-01 12:02 41.26237 28.73486 318 ft 10 kts 212°
2026-05-01 12:02 41.26225 28.73451 318 ft 6 kts 264°
2026-05-01 12:03 41.26221 28.73337 318 ft 16 kts 268°
2026-05-01 12:03 41.26219 28.73139 317 ft 21 kts 270°
2026-05-01 12:03 41.26216 28.72971 317 ft 3 kts 269°
2026-05-01 12:03 41.26216 28.72970 317 ft 0 kts 269°
2026-05-01 12:04 41.26216 28.72971 317 ft 0 kts 269°
2026-05-01 12:05 41.26216 28.72951 317 ft 7 kts 269°
2026-05-01 12:05 41.26215 28.72835 319 ft 18 kts 269°
2026-05-01 12:06 41.26213 28.72642 318 ft 20 kts 269°
2026-05-01 12:06 41.26240 28.72541 319 ft 10 kts 330°
2026-05-01 12:06 41.26309 28.72525 318 ft 9 kts 357°
2026-05-01 12:06 41.26402 28.72522 318 ft 37 kts 359°
2026-05-01 12:07 41.26987 28.72508 310 ft 131 kts 359°
2026-05-01 12:07 41.28136 28.72448 593 ft 181 kts
2026-05-01 12:07 41.29444 28.72377 1427 ft 187 kts
2026-05-01 12:07 41.30703 28.72372 2329 ft 176 kts
2026-05-01 12:08 41.32022 28.72429 2762 ft 205 kts
2026-05-01 12:08 41.33499 28.72483 3446 ft 221 kts
2026-05-01 12:08 41.35055 28.72504 4251 ft 226 kts 360°
2026-05-01 12:08 41.36571 28.71776 4883 ft 246 kts 327°
2026-05-01 12:09 41.37671 28.69953 5633 ft 263 kts 300°
2026-05-01 12:09 41.38209 28.67548 6363 ft 279 kts 280°
2026-05-01 12:09 41.38259 28.64945 7218 ft 283 kts 272°
2026-05-01 12:09 41.38196 28.62318 8151 ft 283 kts 271°
2026-05-01 12:10 41.38100 28.59713 9105 ft 281 kts 263°
2026-05-01 12:10 41.35838 28.55618 10567 ft 295 kts 205°
2026-05-01 12:10 41.33767 28.54995 10801 ft 319 kts 181°
2026-05-01 12:11 41.29870 28.55175 11135 ft 357 kts 180°
2026-05-01 12:11 41.27328 28.55232 11684 ft 371 kts 180°
2026-05-01 12:11 41.24737 28.55191 12291 ft 373 kts 188°
2026-05-01 12:12 41.22230 28.54265 12804 ft 375 kts 205°
2026-05-01 12:12 41.19829 28.52837 13522 ft 382 kts 205°
2026-05-01 12:12 41.17350 28.51503 14466 ft 386 kts 204°
2026-05-01 12:12 41.14844 28.50245 15425 ft 385 kts 203°
2026-05-01 12:13 41.12320 28.49004 16308 ft 388 kts 203°
2026-05-01 12:13 41.09800 28.47760 17073 ft 393 kts 204°
2026-05-01 12:13 41.07223 28.46480 17854 ft 398 kts 204°
2026-05-01 12:13 41.04587 28.45298 18601 ft 404 kts 198°
2026-05-01 12:14 41.01828 28.44449 19318 ft 409 kts 195°
2026-05-01 12:14 40.99029 28.43700 20082 ft 411 kts 195°
2026-05-01 12:14 40.96230 28.42894 20799 ft 413 kts 196°
2026-05-01 12:14 40.93423 28.42033 21475 ft 415 kts 197°
2026-05-01 12:15 40.90718 28.40820 21834 ft 411 kts 212°
2026-05-01 12:15 40.88518 28.38428 22290 ft 411 kts 232°
2026-05-01 12:15 40.86933 28.35315 23120 ft 407 kts 243°
2026-05-01 12:15 40.85877 28.31852 23776 ft 409 kts 256°
2026-05-01 12:16 40.85365 28.28139 24276 ft 412 kts 261°
2026-05-01 12:16 40.84899 28.24381 24785 ft 416 kts 259°
2026-05-01 12:16 40.84363 28.20616 25291 ft 419 kts 258°
2026-05-01 12:16 40.83795 28.16832 25833 ft 421 kts 258°
2026-05-01 12:17 40.83217 28.13028 26350 ft 424 kts 258°
2026-05-01 12:17 40.82635 28.09199 26850 ft 426 kts 258°
2026-05-01 12:17 40.82052 28.05355 27350 ft 429 kts 258°
2026-05-01 12:17 40.81462 28.01474 27821 ft 432 kts 258°
2026-05-01 12:18 40.80877 27.97619 28256 ft 435 kts 258°
2026-05-01 12:18 40.80280 27.93700 28702 ft 437 kts 258°
2026-05-01 12:18 40.79677 27.89757 29117 ft 439 kts 258°
2026-05-01 12:18 40.79237 27.85764 29474 ft 441 kts 266°
2026-05-01 12:19 40.79292 27.81713 29939 ft 442 kts 271°
2026-05-01 12:19 40.79461 27.77664 30229 ft 444 kts 271°
2026-05-01 12:19 40.79617 27.69540 30192 ft 439 kts 269°
2026-05-01 12:20 40.79679 27.61502 30195 ft 438 kts 270°
2026-05-01 12:20 40.80011 27.57510 30181 ft 439 kts 281°
2026-05-01 12:20 40.80858 27.53630 30200 ft 441 kts 285°
2026-05-01 12:21 40.82638 27.45916 30204 ft 443 kts 284°
2026-05-01 12:21 40.84322 27.38055 30210 ft 445 kts 283°
2026-05-01 12:22 40.85961 27.30153 30200 ft 446 kts 283°
2026-05-01 12:22 40.87591 27.22237 30207 ft 446 kts 283°
2026-05-01 12:23 40.89217 27.14332 30203 ft 445 kts 283°
2026-05-01 12:23 40.92058 26.96284 29882 ft 444 kts 273°
2026-05-01 12:24 40.92055 26.94296 29984 ft 438 kts 265°
2026-05-01 12:24 40.91929 26.92297 30053 ft 434 kts 265°
2026-05-01 12:24 40.91795 26.88328 30139 ft 438 kts 268°
2026-05-01 12:25 40.90503 26.63608 30225 ft 451 kts 265°
2026-05-01 12:25 40.89545 26.47306 30170 ft 439 kts 265°
2026-05-01 12:26 40.88587 26.31257 30209 ft 436 kts 265°
2026-05-01 12:26 40.87303 26.14904 30243 ft 444 kts 262°
2026-05-01 12:27 40.86088 26.02838 30252 ft 443 kts 263°
2026-05-01 12:28 40.84860 25.90764 30249 ft 442 kts 261°
2026-05-01 12:29 40.83355 25.78587 30236 ft 457 kts 261°
2026-05-01 12:29 40.81813 25.65989 30232 ft 466 kts 261°
2026-05-01 12:30 40.81004 25.53279 30227 ft 463 kts 273°
2026-05-01 12:31 40.81944 25.44823 30222 ft 470 kts 282°
2026-05-01 12:31 40.83435 25.36390 30223 ft 472 kts 282°
2026-05-01 12:32 40.84890 25.27979 30217 ft 473 kts 282°
2026-05-01 12:32 40.87051 25.15249 30215 ft 473 kts 282°
2026-05-01 12:33 40.88475 25.06771 30220 ft 473 kts 281°
2026-05-01 12:33 40.89894 24.98290 30220 ft 472 kts 281°
2026-05-01 12:34 40.91307 24.89799 30210 ft 472 kts 281°
2026-05-01 12:34 40.92714 24.81312 30213 ft 473 kts 281°
2026-05-01 12:35 40.94116 24.72808 30214 ft 473 kts 281°
2026-05-01 12:35 40.95504 24.64350 30214 ft 474 kts 281°
2026-05-01 12:36 40.96898 24.55813 30212 ft 474 kts 281°
2026-05-01 12:36 40.98285 24.47275 30214 ft 475 kts 281°
2026-05-01 12:37 40.99669 24.38722 30212 ft 475 kts 281°
2026-05-01 12:37 41.01049 24.30145 30203 ft 476 kts 281°
2026-05-01 12:38 41.02423 24.21563 30197 ft 477 kts 281°
2026-05-01 12:38 41.03791 24.12967 30201 ft 477 kts 281°
2026-05-01 12:39 41.05147 24.04407 30214 ft 477 kts 281°
2026-05-01 12:39 41.06506 23.95794 30194 ft 478 kts 281°
2026-05-01 12:40 41.07856 23.87184 30207 ft 478 kts 281°
2026-05-01 12:40 41.09206 23.78535 30197 ft 479 kts 281°
2026-05-01 12:41 41.10548 23.69887 30205 ft 479 kts 281°
2026-05-01 12:41 41.11887 23.61216 30198 ft 480 kts 281°
2026-05-01 12:42 41.13221 23.52530 30195 ft 480 kts 281°
2026-05-01 12:42 41.14551 23.43828 30198 ft 481 kts 281°
2026-05-01 12:43 41.15864 23.35184 30190 ft 481 kts 281°
2026-05-01 12:43 41.17182 23.26471 30187 ft 481 kts 281°
2026-05-01 12:44 41.18491 23.17760 30193 ft 481 kts 281°
2026-05-01 12:45 41.21097 23.00289 30191 ft 482 kts 281°
2026-05-01 12:45 41.22388 22.91548 30190 ft 482 kts 281°
2026-05-01 12:46 41.23676 22.82804 30204 ft 482 kts 281°
2026-05-01 12:46 41.25060 22.74079 30175 ft 483 kts 285°
2026-05-01 12:47 41.27159 22.65658 30192 ft 483 kts 288°
2026-05-01 12:47 41.29274 22.57164 30189 ft 484 kts 287°
2026-05-01 12:48 41.31353 22.48654 30199 ft 484 kts 287°
2026-05-01 12:48 41.33406 22.40192 30201 ft 484 kts 287°
2026-05-01 12:49 41.35484 22.31602 30212 ft 484 kts 287°
2026-05-01 12:49 41.37531 22.23116 30216 ft 485 kts 287°
2026-05-01 12:50 41.39587 22.14560 30201 ft 485 kts 287°
2026-05-01 12:50 41.41641 22.05984 30220 ft 486 kts 287°
2026-05-01 12:51 41.43687 21.97404 30202 ft 486 kts 287°
2026-05-01 12:52 41.46727 21.84597 30204 ft 487 kts 287°
2026-05-01 12:52 41.57443 21.38890 30205 ft 488 kts 287°
2026-05-01 12:53 41.82844 20.37018 29949 ft 487 kts 301°
2026-05-01 12:53 41.83427 20.35686 30011 ft 486 kts 301°
2026-05-01 12:53 41.87301 20.26543 30165 ft 486 kts 300°
2026-05-01 12:54 41.88905 20.22536 30155 ft 488 kts 299°
2026-05-01 12:54 41.93613 20.10368 30167 ft 491 kts 298°
2026-05-01 12:55 41.98308 19.98100 30164 ft 492 kts 298°
2026-05-01 12:56 42.03910 19.83454 30164 ft 494 kts 298°
2026-05-01 12:56 42.09162 19.69654 30161 ft 495 kts 299°
2026-05-01 12:57 42.16429 19.50450 30154 ft 496 kts 298°
2026-05-01 12:57 42.22713 19.31677 30166 ft 500 kts 287°
2026-05-01 12:58 42.23983 19.22429 30169 ft 502 kts 278°
2026-05-01 12:59 42.25130 19.09946 30154 ft 503 kts 279°
2026-05-01 12:59 42.26481 18.95878 30148 ft 504 kts 279°
2026-05-01 13:00 42.27839 18.81772 30151 ft 505 kts 279°
2026-05-01 13:01 42.29176 18.67666 30152 ft 505 kts 279°
2026-05-01 13:02 42.30496 18.53518 30156 ft 506 kts 279°
2026-05-01 13:07 42.39691 17.49137 30163 ft 511 kts 279°
2026-05-01 13:08 42.40485 17.39572 30168 ft 512 kts 279°
2026-05-01 13:08 42.41267 17.30051 30182 ft 513 kts 279°
2026-05-01 13:09 42.42048 17.20455 30180 ft 514 kts 278°
2026-05-01 13:09 42.42827 17.10769 30181 ft 514 kts 278°
2026-05-01 13:10 42.43593 17.01143 30183 ft 515 kts 278°
2026-05-01 13:10 42.44348 16.91553 30201 ft 516 kts 278°
2026-05-01 13:11 42.45100 16.81889 30201 ft 516 kts 278°
2026-05-01 13:11 42.45846 16.72202 30208 ft 517 kts 278°
2026-05-01 13:12 42.46584 16.62515 30213 ft 517 kts 278°
2026-05-01 13:12 42.47315 16.52810 30215 ft 518 kts 278°
2026-05-01 13:13 42.48037 16.43102 30221 ft 518 kts 278°
2026-05-01 13:13 42.48748 16.33441 30227 ft 519 kts 278°
2026-05-01 13:14 42.49457 16.23701 30229 ft 520 kts 278°
2026-05-01 13:14 42.50159 16.13946 30233 ft 521 kts 278°
2026-05-01 13:15 42.50794 16.04136 30226 ft 524 kts 275°
2026-05-01 13:15 42.50548 15.94234 30247 ft 526 kts 270°
2026-05-01 13:16 42.50164 15.84314 30249 ft 527 kts 270°
2026-05-01 13:16 42.49822 15.74394 30244 ft 526 kts 270°
2026-05-01 13:17 42.49162 15.54647 30253 ft 526 kts 270°
2026-05-01 13:18 42.48638 15.39781 30263 ft 527 kts 270°
2026-05-01 13:18 42.48275 15.29854 30263 ft 527 kts 270°
2026-05-01 13:19 42.47905 15.19939 30269 ft 527 kts 270°
2026-05-01 13:20 42.47337 15.05137 30270 ft 527 kts 270°
2026-05-01 13:20 42.46946 14.95230 30274 ft 527 kts 270°
2026-05-01 13:21 42.46344 14.80380 30285 ft 527 kts 270°
2026-05-01 13:21 42.45932 14.70477 30276 ft 527 kts 270°
2026-05-01 13:22 42.45511 14.60569 30289 ft 526 kts 270°
2026-05-01 13:22 42.45083 14.50670 30298 ft 527 kts 270°
2026-05-01 13:23 42.44634 14.40758 30305 ft 527 kts 269°
2026-05-01 13:23 42.43072 14.31169 30158 ft 516 kts 252°
2026-05-01 13:24 42.39943 14.22629 29936 ft 500 kts 240°
2026-05-01 13:24 42.38159 14.18702 29741 ft 493 kts 242°
2026-05-01 13:25 42.34753 14.10696 28431 ft 493 kts 243°
2026-05-01 13:25 42.33046 14.06700 27912 ft 488 kts 242°
2026-05-01 13:25 42.31351 14.02757 27351 ft 483 kts 242°
2026-05-01 13:25 42.29668 13.98855 26829 ft 478 kts 242°
2026-05-01 13:26 42.28004 13.94998 26310 ft 473 kts 242°
2026-05-01 13:26 42.26351 13.91175 25802 ft 469 kts 242°
2026-05-01 13:26 42.24717 13.87392 25296 ft 464 kts 243°
2026-05-01 13:26 42.23110 13.83636 24794 ft 460 kts 243°
2026-05-01 13:27 42.21519 13.79911 24293 ft 456 kts 243°
2026-05-01 13:27 42.19938 13.76220 23790 ft 452 kts 243°
2026-05-01 13:27 42.17363 13.68617 22716 ft 440 kts 254°
2026-05-01 13:28 42.15282 13.60937 21723 ft 432 kts 252°
2026-05-01 13:28 42.14220 13.57157 21216 ft 429 kts 252°
2026-05-01 13:29 42.12121 13.49755 20271 ft 423 kts 252°
2026-05-01 13:29 42.10043 13.42416 19324 ft 416 kts 252°
2026-05-01 13:30 42.05742 13.28148 17345 ft 407 kts 243°
2026-05-01 13:31 42.02486 13.21966 16406 ft 403 kts 233°
2026-05-01 13:31 41.97389 13.13088 15025 ft 396 kts 234°
2026-05-01 13:32 41.94048 13.07219 14102 ft 395 kts 234°
2026-05-01 13:33 41.89078 12.98513 12601 ft 389 kts 234°
2026-05-01 13:33 41.85800 12.92789 11677 ft 385 kts 233°
2026-05-01 13:34 41.82560 12.87154 11020 ft 373 kts 233°
2026-05-01 13:34 41.79473 12.81790 10691 ft 353 kts 233°
2026-05-01 13:35 41.76551 12.76709 10396 ft 335 kts 233°
2026-05-01 13:35 41.75143 12.74269 10271 ft 327 kts 233°
2026-05-01 13:35 41.72426 12.69566 9851 ft 307 kts 233°
2026-05-01 13:36 41.71128 12.67320 9342 ft 302 kts 233°
2026-05-01 13:36 41.69860 12.65138 8981 ft 292 kts 233°
2026-05-01 13:36 41.67426 12.60927 8307 ft 288 kts 233°
2026-05-01 13:37 41.66199 12.58815 7875 ft 285 kts 233°
2026-05-01 13:37 41.64992 12.56728 7386 ft 281 kts 233°
2026-05-01 13:37 41.63808 12.54686 6944 ft 275 kts 233°
2026-05-01 13:37 41.62648 12.52686 6483 ft 270 kts 233°
2026-05-01 13:38 41.60409 12.48835 5522 ft 253 kts 233°
2026-05-01 13:38 41.59343 12.47002 5061 ft 247 kts 233°
2026-05-01 13:38 41.58301 12.45219 4554 ft 240 kts 233°
2026-05-01 13:39 41.57292 12.43489 4080 ft 232 kts 233°
2026-05-01 13:39 41.56444 12.41714 3568 ft 223 kts 256°
2026-05-01 13:39 41.56437 12.39736 2997 ft 210 kts 293°
2026-05-01 13:39 41.57245 12.38297 2713 ft 200 kts 328°
2026-05-01 13:40 41.58503 12.37485 2543 ft 200 kts 337°
2026-05-01 13:40 41.59752 12.36715 2521 ft 199 kts 338°
2026-05-01 13:40 41.61019 12.36049 2490 ft 194 kts 341°
2026-05-01 13:40 41.62281 12.35479 2498 ft 191 kts 343°
2026-05-01 13:41 41.63553 12.34940 2499 ft 192 kts 344°
2026-05-01 13:41 41.64823 12.34411 2507 ft 191 kts 344°
2026-05-01 13:41 41.66089 12.33885 2503 ft 191 kts 344°
2026-05-01 13:41 41.67353 12.33358 2501 ft 187 kts 344°
2026-05-01 13:42 41.68558 12.32853 2484 ft 174 kts 344°
2026-05-01 13:42 41.69693 12.32378 2369 ft 167 kts 345°
2026-05-01 13:42 41.70743 12.31940 2176 ft 151 kts 345°
2026-05-01 13:42 41.71718 12.31530 2014 ft 145 kts 345°
2026-05-01 13:43 41.72705 12.31122 1735 ft 143 kts 344°
2026-05-01 13:43 41.73649 12.30726 1579 ft 143 kts 344°
2026-05-01 13:43 41.74620 12.30318 1409 ft 151 kts 345°
2026-05-01 13:43 41.75610 12.29910 1174 ft 147 kts 345°
2026-05-01 13:44 41.76550 12.29515 1006 ft 142 kts 344°
2026-05-01 13:44 41.77494 12.29118 821 ft 143 kts 346°
2026-05-01 13:44 41.78446 12.28722 606 ft 143 kts 345°
2026-05-01 13:44 41.79385 12.28291 389 ft 141 kts 345°
2026-05-01 13:45 41.80335 12.27911 253 ft 144 kts 347°
2026-05-01 13:45 41.81302 12.27534 49 ft 146 kts 343°
2026-05-01 13:45 41.82132 12.27182 15 ft 79 kts 341°
2026-05-01 13:45 41.82534 12.27015 16 ft 53 kts 343°
2026-05-01 13:46 41.82862 12.26876 18 ft 46 kts 340°
2026-05-01 13:46 41.83112 12.26688 15 ft 36 kts 316°
2026-05-01 13:46 41.83200 12.26565 15 ft 0 kts 313°
2026-05-01 13:47 41.83202 12.26563 15 ft 2 kts 313°
2026-05-01 13:47 41.83237 12.26478 17 ft 12 kts 272°
2026-05-01 13:47 41.83143 12.26389 16 ft 26 kts 193°
2026-05-01 13:47 41.82933 12.26387 15 ft 24 kts 164°
2026-05-01 13:48 41.82831 12.26430 15 ft 14 kts 162°
2026-05-01 13:48 41.82767 12.26456 15 ft 14 kts 162°
2026-05-01 13:48 41.82671 12.26497 15 ft 14 kts 162°
2026-05-01 13:48 41.82576 12.26535 15 ft 14 kts 163°
2026-05-01 13:49 41.82480 12.26576 15 ft 14 kts 162°
2026-05-01 13:49 41.82384 12.26617 15 ft 14 kts 162°
2026-05-01 13:49 41.82284 12.26659 15 ft 16 kts 162°
2026-05-01 13:49 41.82165 12.26709 15 ft 20 kts 162°
2026-05-01 13:50 41.82023 12.26769 14 ft 23 kts 162°
2026-05-01 13:50 41.81861 12.26838 15 ft 26 kts 162°
2026-05-01 13:50 41.81684 12.26909 15 ft 27 kts 163°
2026-05-01 13:50 41.81537 12.26970 15 ft 22 kts 163°
2026-05-01 13:51 41.81393 12.27030 15 ft 22 kts 162°
2026-05-01 13:51 41.81249 12.27090 15 ft 22 kts 162°
2026-05-01 13:51 41.81092 12.27157 16 ft 24 kts 163°
2026-05-01 13:51 41.80929 12.27224 17 ft 25 kts 163°
2026-05-01 13:52 41.80799 12.27276 17 ft 10 kts 163°
2026-05-01 13:52 41.80730 12.27292 17 ft 10 kts 181°
2026-05-01 13:52 41.80670 12.27247 17 ft 11 kts 233°
2026-05-01 13:52 41.80638 12.27158 17 ft 11 kts 249°
2026-05-01 13:53 41.80613 12.27065 18 ft 11 kts 249°
2026-05-01 13:53 41.80528 12.26760 19 ft 27 kts 249°
2026-05-01 13:53 41.80455 12.26493 22 ft 34 kts 250°
2026-05-01 13:54 41.80366 12.26169 21 ft 40 kts 250°
2026-05-01 13:54 41.80266 12.25808 19 ft 40 kts 250°
2026-05-01 13:54 41.80167 12.25452 19 ft 28 kts 249°
2026-05-01 13:54 41.80061 12.25333 19 ft 17 kts 208°
2026-05-01 13:55 41.80039 12.25289 19 ft 3 kts 278°
2026-05-01 13:55 41.80060 12.25221 19 ft 4 kts 284°
2026-05-01 13:55 41.80043 12.25179 19 ft 10 kts 224°
2026-05-01 13:55 41.79953 12.25119 19 ft 20 kts 206°
2026-05-01 13:56 41.79915 12.25135 19 ft 1 kts 108°
2026-05-01 13:56 41.79900 12.25190 19 ft 10 kts 114°
2026-05-01 13:56 41.79898 12.25196 19 ft 0 kts 114°